Weather History for KOGB - February, 2013

Change the Weather History Date:

Tuesday, February 26, 2013

  Actual Average Record
Temperature  
Mean Temperature 59 °F 52 °F  
Max Temperature 76 °F 64 °F 78 °F (2001)
Min Temperature 42 °F 40 °F 12 °F (1967)
Degree Days  
Heating Degree Days 6 13  
Month to date heating degree days 421 409  
Since 1 July heating degree days 1606 1906  
Cooling Degree Days 0 0  
Month to date cooling degree days 0 0  
Year to date cooling degree days 20 1  
Growing Degree Days 8 (Base 50)    
Moisture  
Dew Point 48 °F    
Average Humidity 88    
Maximum Humidity 100    
Minimum Humidity 38    
Precipitation  
Precipitation 0.83 in 0.16 in 2.12 in (2004)
Month to date precipitation 7.32 3.29  
Year to date precipitation 8.16 7.27  
Sea Level Pressure  
Sea Level Pressure 29.73 in    
Wind  
Wind Speed 8 mph (NNE)    
Max Wind Speed 22 mph    
Max Gust Speed 30 mph    
Visibility 8 miles    
Events Rain    
T = Trace of Precipitation, MM = Missing Value Source: NWS Daily Summary

Daily Weather History Graph

Daily Weather History Graph

Search for Another Location

Airport or City:

Trip Planner

Search our weather history database for the weather conditions in past years. The results will help you decide how hot, cold, wet, or windy it might be!

Date:

Astronomy

Feb. 26, 2013 Rise Set
Actual Time 6:55 AM EST 6:17 PM EST
Civil Twilight 6:30 AM EST 6:42 PM EST
Nautical Twilight 6:01 AM EST 7:11 PM EST
Astronomical Twilight 5:32 AM EST 7:40 PM EST
Moon 7:26 PM EST 7:01 AM EST
Length of Visible Light 12h 12m
Length of Day
11h 22m
Full, 99% of the Moon is Illuminated
Feb 26
Full
Mar 4
Last Quarter
Mar 11
New
Mar 19
First Quarter
Mar 27
Full

Hourly Weather History & Observations

Time (EST) Temp. Windchill Dew Point Humidity Pressure Visibility Wind Dir Wind Speed Gust Speed Precip Events Conditions
12:46 AM 42.8 °F 38.0 °F 37.4 °F 81% 29.97 in 10.0 mi ENE 8.1 mph 16.1 mph 0.00 in   Overcast
12:53 AM 43.0 °F 38.2 °F 37.0 °F 80% 29.97 in 10.0 mi ENE 8.1 mph - 0.00 in   Overcast
1:53 AM 43.0 °F 37.7 °F 37.9 °F 82% 29.95 in 9.0 mi ENE 9.2 mph - 0.00 in Rain Light Rain
2:53 AM 42.1 °F 37.1 °F 39.0 °F 89% 29.92 in 5.0 mi ENE 8.1 mph - 0.04 in Rain Light Rain
3:44 AM 42.8 °F 38.0 °F 39.2 °F 87% 29.88 in 6.0 mi ENE 8.1 mph - 0.03 in Rain Light Rain
3:53 AM 42.1 °F 37.7 °F 39.9 °F 92% 29.87 in 5.0 mi ENE 6.9 mph - 0.04 in Rain Light Rain
4:24 AM 42.8 °F 38.6 °F 39.2 °F 87% 29.85 in 5.0 mi ENE 6.9 mph - 0.03 in Rain Light Rain
4:53 AM 43.0 °F 36.8 °F 41.0 °F 93% 29.82 in 5.0 mi ENE 11.5 mph - 0.07 in Rain Rain
5:53 AM 44.1 °F 39.5 °F 42.1 °F 93% 29.81 in 9.0 mi ENE 8.1 mph - 0.04 in Rain Light Rain
6:53 AM 45.0 °F 40.6 °F 43.0 °F 93% 29.78 in 5.0 mi ENE 8.1 mph - 0.06 in Rain Rain
7:46 AM 44.6 °F 42.2 °F 44.6 °F 100% 29.79 in 1.8 mi NNW 4.6 mph - 0.24 in Rain Heavy Rain
7:53 AM 45.0 °F 42.6 °F 44.1 °F 97% 29.80 in 1.2 mi Variable 4.6 mph - 0.28 in Rain Heavy Rain
7:58 AM 44.6 °F 37.8 °F 44.6 °F 100% 29.82 in 1.8 mi West 15.0 mph - 0.03 in Rain Heavy Rain
8:11 AM 44.6 °F 42.2 °F 44.6 °F 100% 29.81 in 2.0 mi NE 4.6 mph - 0.08 in Rain Rain
8:18 AM 44.6 °F 40.2 °F 44.6 °F 100% 29.79 in 3.0 mi NNE 8.1 mph - 0.09 in Rain Rain
8:33 AM 46.4 °F 42.4 °F 44.6 °F 93% 29.79 in 5.0 mi NE 8.1 mph - 0.12 in Rain Rain
8:53 AM 46.0 °F 41.4 °F 44.1 °F 93% 29.77 in 4.0 mi NE 9.2 mph - 0.16 in Rain Heavy Rain
9:44 AM 48.2 °F - 46.4 °F 93% 29.73 in 4.0 mi East 8.1 mph - 0.10 in Rain Light Rain
9:53 AM 48.9 °F - 46.9 °F 93% 29.73 in 7.0 mi ENE 9.2 mph - 0.11 in Rain Light Rain
10:17 AM 48.2 °F - 46.4 °F 93% 29.70 in 8.0 mi ENE 6.9 mph - 0.01 in Rain Light Rain
10:53 AM 50.0 °F - 48.0 °F 93% 29.69 in 10.0 mi ENE 5.8 mph - 0.03 in Rain Light Rain
11:53 AM 53.1 °F - 51.1 °F 93% 29.63 in 10.0 mi East 6.9 mph - 0.00 in   Overcast
12:53 PM 59.0 °F - 57.0 °F 93% 29.56 in 9.0 mi East 4.6 mph - N/A   Overcast
1:53 PM 63.0 °F - 60.1 °F 90% 29.57 in 8.0 mi WNW 6.9 mph - 0.00 in   Overcast
2:27 PM 66.2 °F - 62.6 °F 88% 29.56 in 10.0 mi WSW 4.6 mph - N/A   Scattered Clouds
2:53 PM 69.1 °F - 64.0 °F 84% 29.55 in 10.0 mi South 5.8 mph - N/A   Partly Cloudy
3:53 PM 75.9 °F - 59.0 °F 56% 29.55 in 10.0 mi SW 12.7 mph 24.2 mph N/A   Scattered Clouds
4:53 PM 75.0 °F - 48.0 °F 38% 29.54 in 10.0 mi SW 17.3 mph 26.5 mph N/A   Partly Cloudy
5:53 PM 62.1 °F - 57.0 °F 84% 29.58 in 10.0 mi NNW 10.4 mph - N/A   Clear
6:03 PM 60.8 °F - 55.4 °F 82% 29.59 in 10.0 mi NW 10.4 mph - N/A   Scattered Clouds
6:12 PM 59.0 °F - 55.4 °F 88% 29.60 in 9.0 mi NW 6.9 mph - N/A   Mostly Cloudy
6:53 PM 57.9 °F - 54.0 °F 87% 29.63 in 10.0 mi NW 6.9 mph - N/A   Overcast
7:46 PM 55.4 °F - 51.8 °F 88% 29.64 in 10.0 mi NNW 4.6 mph - N/A   Scattered Clouds
7:53 PM 55.9 °F - 52.0 °F 87% 29.65 in 10.0 mi NW 4.6 mph - N/A   Partly Cloudy
8:15 PM 55.4 °F - 51.8 °F 88% 29.65 in 10.0 mi NNW 4.6 mph - N/A   Mostly Cloudy
8:53 PM 54.0 °F - 51.1 °F 90% 29.68 in 10.0 mi NNW 6.9 mph - N/A   Overcast
9:53 PM 53.1 °F - 50.0 °F 89% 29.70 in 10.0 mi NW 4.6 mph - N/A   Overcast
10:53 PM 53.1 °F - 48.9 °F 86% 29.73 in 10.0 mi WNW 8.1 mph - N/A   Overcast
11:49 PM 51.8 °F - 48.2 °F 88% 29.75 in 10.0 mi WNW 9.2 mph - N/A   Overcast
11:53 PM 52.0 °F - 48.0 °F 86% 29.75 in 10.0 mi WNW 6.9 mph - N/A   Overcast